Terminal Aerodrome Forecast
Issued by NWS

Home | Current Version | Previous Version | Text Only | Print | Product List | Glossary On
Versions: 1 2 3 4 5 6 7 8 9 10 11 12 13 14 15 16 17 18 19 20 21 22 23 24 25 26 27 28 29 30 31 32 33 34 35 36 37 38 39 40 41 42
000
FTUS45 KBOI 272330
TAFTWF
TAF
KTWF 272330Z 2800/2824 07010KT P6SM VCSH OVC070
      TEMPO 2800/2802 -SHRA OVC035
     FM280200 11007KT P6SM VCSH OVC070
     FM281500 06008KT P6SM VCSH BKN070=

USA.gov is the U.S. government's official web portal to all federal, state and local government web resources and services.